TIANLIAN 2-02

Last updated on Mon Sep 21 2026 00:03:02 GMT+0000 (Coordinated Universal Time)

1 50005U 21124A 26263.56792774 -.00000017 00000+0 00000+0 0 9993 2 50005 1.0407 84.4729 0003593 152.2886 138.1363 1.00273421 17575
UTC large
Height (km)
Speed (km/s)
/
Latitude / Longitude
Inclination (degrees)
Orbital Period (minutes)
Azimuth
Elevation
Range (km)
Doppler Factor

Next 0 passes for location: London (51.5072 / 0.1276)

No passes found over London.
TIANLIAN 2-02